www.pogodaiklimat.ru

ПОГОДА в Седалии, MO

  • Прогноз погоды в Седалии
  • Монитор погоды в Седалии
  • Климат в Седалии

АРХИВ ПОГОДЫ в Седалии

Время (UTC), дата Ветер
(напр.,м/с)
 
Видим.   Явления Облачность Т
(С)
Тd
(С)
f
(%)
Тe
(С)
Тes
(С)
Комфортность

P
(гПа)

Po
(гПа)
Тmin
(С)
Tmax
(С)
R
(мм)
SD
(см)
05:53 24.06 Ю  16 км    ясно  +18.3  +18.3  100  +19  +19    1007.2  975.0         
06:53 24.06 ЮЗ  16 км    ясно  +18.3  +18.3  100  +19  +19    1006.6  974.3         
07:53 24.06 ЮЗ  16 км    ясно  +18.3  +18.3  100  +19  +19    1006.2  974.0         
08:53 24.06 З  16 км    8/8 990 м  +18.3  +18.3  100  +19  +19    1006.9  974.7         
09:51 24.06 З  16 км    8/8 300 м  +19.0  +19.0  100  +21  +21  комфорт    975.0         
09:53 24.06 З  16 км    8/8 300 м  +18.9  +18.9  100  +20  +20    1007.2  975.0         
10:06 24.06 З  4
{8} 
16 км    10/10 240 м  +18.9  +18.9  100  +20  +20      975.0         
10:49 24.06 З  16 км    10/10 240 м  +19.0  +19.0  100  +21  +21  комфорт    975.3         
10:53 24.06 З  16 км    8/8 270 м  +18.9  +18.9  100  +21  +21  комфорт  1007.5  975.3  +18.3  +18.9     
11:29 24.06 З  16 км    8/8 420 м  +18.9  +18.3  96  +20  +20      976.0         
11:53 24.06 СЗ  16 км    10/10 390 м  +18.9  +17.8  93  +20  +20    1008.5  976.3         
12:03 24.06 СЗ  16 км    8/5 450 м
[средняя] 
+19.4  +18.3  93  +21  +22  комфорт    976.3         
12:53 24.06 З  16 км    8/8 510 м
[средняя] 
+19.4  +16.7  84  +21  +21  комфорт  1008.9  976.6         
13:53 24.06 З  16 км    5/5 510 м
[средняя] 
+20.6  +16.7  78  +24  +26  комфорт  1009.2  977.0         
14:25 24.06 З  6
{9} 
16 км    8/8 630 м  +21.1  +17.2  78  +25  +25  комфорт    977.3         
14:53 24.06 З  4
{9} 
16 км    5/5 720 м  +21.7  +16.7  73  +26  +29  душно  1009.7  977.3         
15:07 24.06 З  5
{10} 
16 км    8/8 720 м  +21.7  +16.1  70  +25  +27  комфорт    977.3         
15:22 24.06 З  5
{9} 
16 км    5/5 810 м  +21.7  +16.1  70  +25  +28  комфорт    977.6         
15:53 24.06 З  5
{8} 
16 км    5/5 870 м  +22.2  +16.1  68  +26  +29  душно  1009.9  977.6         
16:53 24.06 СЗ  6
{9} 
16 км    8/8 990 м  +23.3  +16.7  66  +28  +29  душно  1010.3  977.9  +18.3  +23.3     
17:53 24.06 СЗ  6
{9} 
16 км    8/8 1260 м  +22.8  +15.6  64  +27  +28  душно  1010.4  978.3         
18:53 24.06 З  5
{10} 
16 км    2/2 1350 м  +23.9  +15.6  60  +27  +33  жарко  1010.5  978.3         
19:53 24.06 З  5
{10} 
16 км    2/2 1500 м  +23.9  +15.0  57  +27  +32  жарко  1010.6  978.3         
20:53 24.06 З  5
{8} 
16 км    2/2 1440 м  +24.4  +15.0  56  +27  +31  жарко  1010.5  978.3         
21:53 24.06 З  6
{9} 
16 км    2/2 1470 м  +23.9  +14.4  55  +26  +29  жарко  1010.4  978.3         
22:53 24.06 З  16 км    ясно  +22.8  +14.4  59  +26  +29  жарко  1010.7  978.6  +22.2  +24.4     
23:53 24.06 ЮЗ  16 км    ясно  +21.7  +15.0  66  +25  +26  комфорт  1011.0  978.6         
00:53 25.06 ЮЗ  16 км    ясно  +19.4  +15.6  79  +21  +22  комфорт  1011.4  978.9         
01:53 25.06 ЮЗ  16 км    ясно  +18.3  +15.6  84  +19  +19    1011.9  979.6         
02:53 25.06 Ю  16 км    ясно  +16.7  +15.6  93  +16  +16    1012.4  979.9         
03:53 25.06 Ю  16 км    ясно  +16.1  +15.6  97  +16  +16    1012.5  979.9         
04:53 25.06 ЮЗ  16 км    ясно  +16.1  +15.6  97  +15  +15    1012.6  980.2  +16.1  +22.8     
05:53 25.06 Ю  16 км    ясно  +15.0  +15.0  100  +14  +14    1012.5  980.2         
06:53 25.06 Ю  16 км    ясно  +15.0  +15.0  100  +14  +14    1012.6  980.2         
07:53 25.06 Ю  16 км    ясно  +15.0  +15.0  100  +14  +14    1012.8  980.2         
08:53 25.06 Ю  16 км    ясно  +15.0  +15.0  100  +14  +14    1013.1  980.6         
09:53 25.06 Ю  16 км    ясно  +15.0  +15.0  100  +14  +14    1013.6  981.2         
10:53 25.06 Ю  16 км    ясно  +16.1  +15.6  97  +15  +15    1014.4  981.9  +14.4  +16.1     
11:53 25.06 Ю  16 км    ясно  +18.9  +17.2  90  +20  +21    1015.0  982.5         
12:53 25.06 ЮЗ  16 км    ясно  +21.7  +17.8  78  +26  +28  душно  1015.1  982.9         
13:53 25.06 ЮЗ  16 км    2/0 3600 м
[средняя] 
+23.3  +18.3  73  +29  +31  душно  1015.7  983.2         
14:53 25.06 ЮЗ  н/о    ясно  +25.0  +19.4  71  +30  +38  душно  1015.7  983.2         
15:53 25.06   16 км    ясно  +26.7  +19.4  64  +32  +54  опасность
солнечного
удара 
1015.7  983.2         
16:53 25.06 ЮЗ  16 км    ясно  +27.8  +18.9  58  +33  +40  очень
душно 
1015.4  982.9  +16.1  +27.8     
17:53 25.06 ЮЗ  16 км    ясно  +28.3  +19.4  59  +34  +41  очень
душно 
1015.3  982.9         
18:53 25.06 ЮЗ  16 км    ясно  +29.4  +20.6  59  +36  +44  очень
душно 
1014.9  982.5         
19:53 25.06 Ю  16 км    ясно  +29.4  +20.0  57  +36  +42  очень
душно 
1014.7  982.5         
20:53 25.06 ЮЗ  16 км    ясно  +28.9  +20.0  59  +35  +43  очень
душно 
1014.4  982.2         

 

Местоположение метеостанции Sedalia Memorial Airport: широта 38.7122 долгота -93.1744 высота над уровнем моря 277 м.

В архиве по умолчанию представлена погода в Седалии за последние 1-2 суток. Обновление информации о фактической погоде в базе происходит ежечасно! Архивные данные за месяц целиком и за предыдущие месяцы Вы можете получить, выбрав интересующий диапазон дат из раскрывающегося списка и нажав кнопку "Ввод!".

Внимание! Архив погоды МЕТАР в базе сайта хранится не более 60 дней. Нет смысла пытаться выбрать более раннюю дату.

Внимание! Время в таблицах - всемирное. Для получения местного времени необходимо прибавить поправку, которая в Седалии равна -6 ч.

Ветер - указаны скорость ветра в м/с и направление, откуда дует ветер: С - северный, СВ - северо-восточный, В - восточный, ЮВ - юго-восточный, Ю - южный, ЮЗ - юго-западный, З - западный, СЗ - северо-западный.
Видимость - горизонтальная дальность видимости в метрах или километрах. При видимости от 1 до 10 км при отсутствии осадков обычно наблюдается дымка, при ухудшении видимости до 1 км и менее - туман. В сухую погоду видимость может ухудшаться дымом, пылью или мглою.
Атмосферные явления - указаны явления, наблюдавшиеся в указанный момент времени.
Облачность - указаны через наклонную черту верхняя и нижняя облачность в баллах и высота нижней границы облаков в метрах. Внимание: облачность, как и прочие метеорологические величины в США измеряются автоматическими метеостанциями. Указанные значения в баллах носят условный характер и показывают процент времени, в течение которого, в среднем, лазерный луч высотомера отражался от облаков обратно.
T - Температура воздуха - температура, измеренная на высоте 2 м над землей.
Td - Температура точки росы - температура, при понижении до которой содержащийся в воздухе водяной пар достигнет насыщения.
f - Относительная влажность воздуха - влажноcть воздуха, измеренная на высоте 2 м над землей.
Te - Эффективная температура - температура, которую ощущает одетый по сезону человек в тени. Характеристика душности погоды. При расчете учитывается влияние влажности воздуха и скорости ветра на теплоощущения человека.
Tes - Эффективная температура на солнце - температура, которую ощущает человек, с поправкой на солнечный нагрев. Характеристика знойности погоды. Зависит от высоты солнца над горизонтом, облачности и скорости ветра. Ночью, в пасмурную погоду, а также при ветре 12 м/с и более поправка равна нулю.
P - Атмосферное давление - приведенное к уровню моря атмосферное давление.
Po - Атмосферное давление - измеренное на уровне метеостанции атмосферное давление.
Tmin - Минимальная температура - минимум температуры воздуха на высоте 2 м над землей.
Tmax - Максимальная температура - максимум температуры воздуха на высоте 2 м над землей.
R - Количество осадков - Количество выпавших осадков за 3 или 6 часов, мм.
SD - Снежный покров - Высота снежного покрова, см.